Showing default

FLOCK 4BE 13, 60512

Orbit data source: Space-Track

FLOCK 4BE 13, 60512 is a payload satellite owned by Planet (US) in SSO that was launched on Fri, 16 Aug 2024 UTC via an FALCON 9 launch vehicle from the Air Force Western Test Range (AFWTR). Payload-class satellites include a variety of spacecraft equipped with specific instruments for various scientific and technological missions. These include communications satellites like Starlink; space stations such as the ISS; scientific satellites like the Hubble; Earth observation satellites from companies like Planet Labs, Umbra, and HawkEye 360; GPS; miniature CubeSats for education and research; and military/defense satellites.

Loading next visibility...
Identifier
60512, 2024-149AW
Orbit
SSO
Country
Flag of USUS
Related business
Manufacturer
Planet
Mission
Operational Commercial Imaging
Bus & Motor
CUBESAT 3U, Unknown motor
Mass
5.7 kg wet, 5.7 kg dry
Launch date (UTC)
2024-08-16 (2 years ago)
Launch vehicle
FALCON 9
Launch site
Air Force Western Test Range (AFWTR)
Object type
Payload
Rocket body
Debris
Shape & HBR
Box + 2 Pan, 1.0 m
Radar Cross Section
0.072 m², Medium (>0.1 m² and < 1m²)

Expand to show TLE details & history
Last TLE update: 21 hours ago

TLE from 21 hours ago
0 FLOCK 4BE 13
1 60512U 24149AW  26236.51941800  .00014655  00000-0  32717-3 0  9995
2 60512  97.3693 321.7138 0004514  42.1487 318.0107 15.43634958112909
Epoch: 2026-08-24T12:27Z
TLE epoch observation values (Epoch: 2026-08-24T12:27:57.715Z)
Latitude
-0.00005°
Longitude
161.92337°
Altitude
436.229 km
Speed
7.651 km/s
True Right ascension
21h 26m 51s
True Declination
0° 00' 00"
Sunlit
Object was in full shadow at epoch
Visualization orbit readout
Latitude
Unknown
Longitude
Unknown
Altitude
Unknown
Speed
Unknown
Apparent Right ascension
Unknown
Apparent Declination
Unknown
Sunlit
N/A
Visualization observer readout
Local Sidereal Time
00:21:51
Azimuth
Unknown
Elevation
Unknown
Doppler factor
Unknown
Orbital elements
Apogee altitude
435.399 km
Perigee altitude
429.251 km
Semi-major axis
6,810.462 km
Eccentricity
0.00045
Inclination
97.3693°
RAAN
321.7138°
Arg. of periapsis
42.1487°
True anomaly
317.97608°
Mean anomaly
318.0107°
Eccentric anomaly
317.99339°
Mean motion
3.8617 °/min
Orbital period
93.22 mins
BSTAR
0.00032717
Loading maneuver chart data...
Computing Atmospheric mass density...
Loading historical data...
Loading historical data...
Loading historical data...
Loading historical data...
Loading historical data...
Loading historical data...
Loading historical data...

Documentation

Showing up to 5 results
|